Regional Weather Roundup
Issued by NWS Sterling, VA

Home | Current Version | Previous Version | Graphics & Text | Print | Product List | Glossary On
Versions: 1 2 3 4 5 6 7 8 9 10 11 12 13 14 15 16 17 18 19 20 21 22 23 24 25 26 27 28 29 30 31 32 33 34 35 36 37 38 39 40 41 42 43 44 45 46 47 48 49 50
000
ASUS41 KLWX 031610
RWRLWX

REGIONAL WEATHER ROUNDUP
NATIONAL WEATHER SERVICE BALTIMORE MD/WASHINGTON DC
1200 PM EDT FRI JUL 03 2015

Note: "FAIR" indicates few or no clouds below 12,000 feet
with no significant weather and/or obstructions to visibility.
 TC=TEMPERATURE CELSIUS

 * =Non NWS site. Station does not report precipitation (e.g. rain,
    snow, etc.), thunder, or fog.

DCZ001-MDZ009-015-VAZ040>042-051-053>054-031700-
WASHINGTON METRO

CITY           SKY/WX    TMP DP  RH WIND       PRES   REMARKS
WASHINGTON NAT PTSUNNY   78  65  63 S8        30.00S
DULLES         MOSUNNY   76  62  62 VRB6      30.00S
ANDREWS AFB    MOSUNNY   76  70  83 SE5       30.00R
FT BELVOIR     PTSUNNY   76  64  67 VRB2      30.00S
QUANTICO       PTSUNNY   75  64  68 CALM      30.01R
COLLEGE PARK*  MOSUNNY   79  61  53 S3        29.99S
LEESBURG*      PTSUNNY   79  66  65 S12       30.01S
MANASSAS*      SUNNY     75  64  69 S7        30.00S
GAITHERSBURG*  MOSUNNY   79  63  57 SE9       30.04S

$$

MDZ006>007-011-014-031700-
BALTIMORE METRO

CITY           SKY/WX    TMP DP  RH WIND       PRES   REMARKS
BWI AIRPORT    CLOUDY    77  62  59 SE5       29.99S
MD SCIENCE CTR   N/A     77  64  64 MISG      30.02F
MARTIN STATE   MOSUNNY   77  70  78 SE6       30.01S HAZE
ANNAPOLIS      MOSUNNY   75  67  76 SE9       29.99S HAZE
FORT MEADE*    MOSUNNY   77  64  65 S6        30.02S

$$

MDZ012-015-019>023-031700-
MARYLAND EASTERN SHORE

CITY           SKY/WX    TMP DP  RH WIND       PRES   REMARKS
OCEAN CITY     SUNNY     76  65  68 SE9G25    30.01R
SALISBURY      MOSUNNY   77  64  64 VRB6      30.00R
BAY BRIDGE AP*   N/A     77  61  57 S7        30.00R
CAMBRIDGE*     PTSUNNY   79  61  53 S6        29.99S
EASTON*        SUNNY     79  64  61 S3        30.03S

$$

MDZ017>025-031700-
SOUTHERN MARYLAND

CITY           SKY/WX    TMP DP  RH WIND       PRES   REMARKS
PATUXENT RIVER MOSUNNY   77  66  68 SE8       29.99S
ST INIGOES     MOSUNNY   78  66  66 S8        29.99R
LEONARDTOWN*   PTSUNNY   77  63  61 CALM      30.01S

$$

MDZ003>005-031700-
NORTH CENTRAL MARYLAND

CITY           SKY/WX    TMP DP  RH WIND       PRES   REMARKS
FREDERICK*     PTSUNNY   77  70  78 CALM      30.03R
HAGERSTOWN APT PTSUNNY   76  63  64 S5        30.00S
WESTMINSTER*   MOSUNNY   79  64  61 S6        30.01S

$$

MDZ501>502-031700-
WESTERN MARYLAND

CITY           SKY/WX    TMP DP  RH WIND       PRES   REMARKS
OAKLAND*       MOSUNNY   66  66 100 SE12      30.04S
CUMBERLAND*    MOSUNNY   73  63  68 S6        30.03F

$$

VAZ025>031-031700-
SHENANDOAH VALLEY

CITY           SKY/WX    TMP DP  RH WIND       PRES   REMARKS
WINCHESTER*    CLOUDY    77  64  65 E6        30.00S
FRONT ROYAL*   FAIR      77  64  65 SE5       29.99S
LURAY*         CLOUDY    77  64  65 CALM      30.00S
NEW MARKET*    CLOUDY    74  62  66 S5        29.98S
STAUNTON*      CLOUDY    73  65  75 CALM      30.03S
WAYNESBORO*    CLOUDY    68  64  85 SE6       30.02S

$$

WVZ021-048>050-054>055-031700-
EASTERN WEST VIRGINIA PANHANDLE

CITY           SKY/WX    TMP DP  RH WIND       PRES   REMARKS
MARTINSBURG    PTSUNNY   73  66  78 CALM      30.01S
PETERSBURG*    CLOUDY    76  60  57 CALM      29.99S

$$

VAZ036>039-050-031700-
CENTRAL FOOTHILLS

CITY           SKY/WX    TMP DP  RH WIND       PRES   REMARKS
CHARLOTTESVILL CLOUDY    73  65  75 CALM      30.01R
CULPEPER*      CLOUDY    75  64  67 SE3       30.01S
ORANGE*        CLOUDY    77  66  69 CALM      30.01S
GORDONSVILLE*  CLOUDY    73  66  78 NE3       29.99F
WARRENTON*     FAIR      76  67  71 E6        30.00S

$$

VAZ055>057-031700-
NORTH AND CENTRAL PIEDMONT

CITY           SKY/WX    TMP DP  RH WIND       PRES   REMARKS
FREDERICKSBRG* PTSUNNY   80  66  61 E5        29.99S
STAFFORD*      PTSUNNY   76  64  65 S7        30.04S

$$

NCZ024-NYZ072-PAZ021-071-VAZ022-071-031700-
OTHER REGIONAL OBSERVATIONS

CITY           SKY/WX    TMP DP  RH WIND       PRES   REMARKS
NEW YORK CITY  SUNNY     77  50  38 E7        30.02S
PHILADELPHIA   PTSUNNY   80  60  50 E5        30.00F
PITTSBURGH     CLOUDY    74  55  51 E3        29.96F
ROANOKE        CLOUDY    68  66  93 E5        30.02S FOG
RICHMOND       PTSUNNY   80  65  59 E7        29.99R
RALEIGH        CLOUDY    76  70  82 S5        29.98F

$$

ANZ530>537-031700-
MARINE OBSERVATIONS

STATION/POSITION TIME  TEMP    WIND        PRES
                       AIR SEA DIR/SP/G
                 (UTC) (F)     (DEG/KT/KT) (MB)
THOMAS PT LIGHT  NOT AVBL
BALT KEY BRIDGE  1500   72     110/  4/  5 1015.7R
COVE POINT       1500   73     170/  3/  4 1016.3F
LEWISETTA        1500   75 79  110/  8/ 10 1015.4R
SOLOMONS ISLAND  1500      79                N/A
PINEY POINT      1500          170/  7/  8   N/A

$$



USA.gov is the U.S. government's official web portal to all federal, state and local government web resources and services.